GW1625 Weather Reports


time (UTC)temp
C
wind
direction
speed
KPH
gust
KPH
rain 1hr
cm
rain 24hr
cm
rain mn
cm
humidity
%
barometer
mb
20260507133101 15 325 1.6 8.0 0.00 0.00 0.00 59 1016.6
20260507132539 15 64 1.6 8.0 0.00 0.00 0.00 57 1016.7
20260507132038 15 137 1.6 8.0 0.00 0.00 0.00 58 1016.6
20260507131555 15 34 0.0 3.2 0.00 0.00 0.00 60 1016.6
20260507131039 15 0 0.0 4.8 0.00 0.00 0.00 58 1016.5
20260507130540 15 309 1.6 8.0 0.00 0.00 0.00 59 1016.5
20260507130105 15 316 0.0 8.0 0.00 0.00 0.00 57 1016.5
20260507125539 15 61 1.6 8.0 0.00 0.00 0.00 57 1016.6
20260507125039 15 68 1.6 8.0 0.00 0.00 0.00 59 1016.6
20260507124548 15 287 0.0 9.7 0.00 0.00 0.00 57 1016.6
20260507124040 15 51 1.6 11.3 0.00 0.00 0.00 57 1016.5
20260507123543 15 28 3.2 11.3 0.00 0.00 0.00 57 1016.4
20260507123051 16 44 1.6 11.3 0.00 0.00 0.00 56 1016.4
20260507122541 16 139 1.6 8.0 0.00 0.00 0.00 58 1016.5
20260507122040 15 344 1.6 8.0 0.00 0.00 0.00 58 1016.3
20260507121606 15 120 1.6 11.3 0.00 0.00 0.00 56 1016.5
20260507121042 15 9 1.6 11.3 0.00 0.00 0.00 57 1016.4
20260507120539 15 221 3.2 11.3 0.00 0.00 0.00 55 1016.4
20260507120058 15 221 3.2 11.3 0.00 0.00 0.00 54 1016.4
20260507115542 16 140 3.2 11.3 0.00 0.00 0.00 56 1016.3
20260507115041 16 252 1.6 6.4 0.00 0.00 0.00 57 1016.3
20260507114621 15 22 1.6 6.4 0.00 0.00 0.00 54 1016.3
20260507114040 15 245 1.6 6.4 0.00 0.00 0.00 53 1016.3
20260507113543 15 105 1.6 8.0 0.00 0.00 0.00 55 1016.4
20260507113043 15 93 0.0 11.3 0.00 0.00 0.00 54 1016.4
20260507112538 15 0 3.2 11.3 0.00 0.00 0.00 54 1016.4
20260507112041 15 64 3.2 11.3 0.00 0.00 0.00 55 1016.5
20260507111539 15 309 1.6 11.3 0.00 0.00 0.00 56 1016.5
20260507111038 15 153 1.6 9.7 0.00 0.00 0.00 58 1016.5
20260507110538 15 165 1.6 8.0 0.00 0.00 0.00 57 1016.5
20260507110046 15 0 3.2 6.4 0.00 0.00 0.00 58 1016.6
20260507105540 15 68 1.6 6.4 0.00 0.00 0.00 60 1016.6
20260507105041 15 26 1.6 9.7 0.00 0.00 0.00 61 1016.6
20260507104546 15 0 1.6 9.7 0.00 0.00 0.00 57 1016.6
20260507104040 15 291 3.2 12.9 0.00 0.00 0.00 55 1016.6
20260507103540 16 68 1.6 12.9 0.00 0.00 0.00 56 1016.6
20260507103042 16 68 3.2 12.9 0.00 0.00 0.00 56 1016.7
20260507102539 16 27 3.2 11.3 0.00 0.00 0.00 60 1016.6
20260507102043 15 111 3.2 11.3 0.00 0.00 0.00 61 1016.6
20260507101544 15 178 3.2 11.3 0.00 0.00 0.00 58 1016.6
20260507101043 15 43 1.6 11.3 0.00 0.00 0.00 59 1016.7
20260507100538 15 282 3.2 12.9 0.00 0.00 0.00 59 1016.7
20260507100044 15 249 1.6 12.9 0.00 0.00 0.00 61 1016.5
20260507095542 15 49 4.8 11.3 0.00 0.00 0.00 60 1016.6
20260507095038 15 0 3.2 11.3 0.00 0.00 0.00 62 1016.5
20260507094549 15 51 1.6 9.7 0.00 0.00 0.00 66 1016.6
20260507094038 14 334 3.2 9.7 0.00 0.00 0.00 63 1016.6
20260507093540 15 279 3.2 11.3 0.00 0.00 0.00 65 1016.7
20260507093049 14 0 3.2 11.3 0.00 0.00 0.00 63 1016.6
20260507092541 15 218 3.2 9.7 0.00 0.00 0.00 67 1016.6
20260507092040 14 165 1.6 9.7 0.00 0.00 0.00 69 1016.6
20260507091547 13 0 1.6 8.0 0.00 0.00 0.00 69 1016.5
20260507091041 13 0 3.2 8.0 0.00 0.00 0.00 67 1016.5
20260507090542 13 28 1.6 8.0 0.00 0.00 0.00 69 1016.5
20260507090054 13 51 1.6 9.7 0.00 0.00 0.00 70 1016.5
20260507085539 13 301 3.2 11.3 0.00 0.00 0.00 68 1016.5
20260507085043 12 212 1.6 11.3 0.00 0.00 0.00 70 1016.5
20260507084558 12 9 1.6 9.7 0.00 0.00 0.00 70 1016.5
20260507084043 12 0 1.6 8.0 0.00 0.00 0.00 73 1016.4
20260507083539 12 51 3.2 8.0 0.00 0.00 0.00 74 1016.4
20260507083057 12 0 0.0 8.0 0.00 0.00 0.00 75 1016.4
20260507082544 12 282 1.6 8.0 0.00 0.00 0.00 75 1016.5
20260507082041 12 26 1.6 6.4 0.00 0.00 0.00 76 1016.4
20260507081552 11 0 1.6 9.7 0.00 0.00 0.00 74 1016.4
20260507081044 11 0 1.6 9.7 0.00 0.00 0.00 76 1016.2
20260507080541 11 325 1.6 8.0 0.00 0.00 0.00 76 1016.3
20260507080105 12 309 1.6 6.4 0.00 0.00 0.00 76 1016.4
20260507075540 11 34 0.0 6.4 0.00 0.00 0.00 77 1016.3
20260507075040 11 265 1.6 6.4 0.00 0.00 0.00 76 1016.2
20260507074559 11 325 1.6 6.4 0.00 0.00 0.00 76 1016.2
20260507074039 11 309 0.0 4.8 0.00 0.00 0.00 76 1016.2
20260507073539 11 330 1.6 4.8 0.00 0.00 0.00 76 1016.2
20260507073057 11 51 0.0 3.2 0.00 0.00 0.00 79 1016.1
20260507072539 11 30 0.0 4.8 0.00 0.00 0.00 79 1016.0
20260507072040 11 265 1.6 4.8 0.00 0.00 0.00 79 1016.1
20260507071550 10 0 1.6 4.8 0.00 0.00 0.00 79 1016.0
20260507071043 10 26 1.6 4.8 0.00 0.00 0.00 78 1016.1
20260507070542 10 178 0.0 6.4 0.00 0.00 0.00 79 1016.0
20260507070054 10 76 1.6 6.4 0.00 0.00 0.00 79 1016.0
20260507065542 10 0 0.0 6.4 0.00 0.00 0.00 80 1016.0
20260507065038 10 26 1.6 8.0 0.00 0.00 0.00 80 1015.9
20260507064554 10 0 1.6 8.0 0.00 0.00 0.00 80 1015.9
20260507064039 10 51 1.6 8.0 0.00 0.00 0.00 81 1015.9
20260507063542 10 28 1.6 6.4 0.00 0.00 0.00 82 1015.9
20260507063059 10 0 0.0 4.8 0.00 0.00 0.00 83 1015.9
20260507062540 10 61 0.0 4.8 0.00 0.00 0.00 83 1015.9
20260507062042 10 265 1.6 4.8 0.00 0.00 0.00 83 1015.8
20260507061552 10 265 1.6 6.4 0.00 0.00 0.00 83 1015.7
20260507061039 10 30 0.0 6.4 0.00 0.00 0.00 84 1015.7
20260507060539 10 298 0.0 4.8 0.00 0.00 0.00 84 1015.6
20260507060048 10 265 0.0 3.2 0.00 0.00 0.00 84 1015.7
20260507055539 10 309 0.0 3.2 0.00 0.00 0.00 84 1015.6
20260507055038 9 9 0.0 3.2 0.00 0.00 0.00 84 1015.5
20260507054546 9 0 0.0 3.2 0.00 0.00 0.00 84 1015.5
20260507054041 9 0 0.0 4.8 0.00 0.00 0.00 84 1015.4
20260507053539 9 44 0.0 4.8 0.00 0.00 0.00 84 1015.5
20260507053048 9 0 0.0 3.2 0.00 0.00 0.00 84 1015.4
20260507052538 9 0 0.0 3.2 0.00 0.00 0.00 84 1015.4
20260507052038 9 298 0.0 3.2 0.00 0.00 0.00 84 1015.4
20260507051549 9 0 0.0 1.6 0.00 0.00 0.00 84 1015.3
20260507051041 9 0 0.0 3.2 0.00 0.00 0.00 84 1015.3
20260507050539 9 0 0.0 3.2 0.00 0.00 0.00 84 1015.2
20260507050050 9 0 0.0 3.2 0.00 0.00 0.00 84 1015.3
20260507045540 9 0 0.0 3.2 0.00 0.00 0.00 83 1015.1
20260507045038 9 0 0.0 1.6 0.00 0.00 0.00 83 1015.2
20260507044549 9 0 0.0 4.8 0.00 0.00 0.00 84 1015.0
20260507044038 9 0 0.0 4.8 0.00 0.00 0.00 83 1015.0
20260507043539 9 294 0.0 3.2 0.00 0.00 0.00 83 1014.9
20260507043053 9 0 0.0 4.8 0.00 0.00 0.00 83 1014.8
20260507042538 9 0 0.0 4.8 0.00 0.00 0.00 83 1014.7
20260507042042 9 93 0.0 3.2 0.00 0.00 0.00 82 1014.7
20260507041545 9 334 0.0 3.2 0.00 0.00 0.00 82 1014.7
20260507041042 9 56 0.0 6.4 0.00 0.00 0.00 82 1014.7
20260507040541 9 0 0.0 6.4 0.00 0.00 0.00 82 1014.6
20260507040057 9 0 0.0 4.8 0.00 0.00 0.00 83 1014.6
20260507035540 9 0 0.0 3.2 0.00 0.00 0.00 82 1014.5
20260507035040 9 291 0.0 3.2 0.00 0.00 0.00 82 1014.5
20260507034549 9 51 0.0 3.2 0.00 0.00 0.00 82 1014.4
20260507034040 9 51 0.0 3.2 0.00 0.00 0.00 83 1014.5
20260507033541 9 0 0.0 3.2 0.00 0.00 0.00 83 1014.4
20260507033054 9 0 0.0 1.6 0.00 0.00 0.00 83 1014.4
20260507032540 9 0 0.0 1.6 0.00 0.00 0.00 83 1014.4
20260507032040 9 0 0.0 1.6 0.00 0.00 0.00 83 1014.5
20260507031552 9 0 0.0 1.6 0.00 0.00 0.00 83 1014.4
20260507031043 9 0 0.0 1.6 0.00 0.00 0.00 83 1014.4
20260507030540 9 0 0.0 1.6 0.00 0.00 0.00 83 1014.3
20260507030051 9 0 0.0 0.0 0.00 0.00 0.00 83 1014.4
20260507025539 9 0 0.0 0.0 0.00 0.00 0.00 83 1014.4
20260507025041 9 0 0.0 1.6 0.00 0.00 0.00 83 1014.3
20260507024605 9 0 0.0 1.6 0.00 0.00 0.00 83 1014.3
20260507024042 9 0 0.0 1.6 0.00 0.00 0.00 83 1014.3
20260507023541 9 0 0.0 1.6 0.00 0.00 0.00 83 1014.3
20260507023053 9 0 0.0 1.6 0.00 0.00 0.00 82 1014.3
20260507022540 9 0 0.0 1.6 0.00 0.00 0.00 82 1014.3
20260507022039 9 0 0.0 1.6 0.00 0.00 0.00 82 1014.2
20260507021553 9 0 0.0 1.6 0.00 0.00 0.00 81 1014.2
20260507021042 9 0 0.0 1.6 0.00 0.00 0.00 82 1014.2
20260507020541 9 0 0.0 1.6 0.00 0.00 0.00 82 1014.2
20260507020109 9 0 0.0 1.6 0.00 0.00 0.00 81 1014.1
20260507015540 9 0 0.0 1.6 0.00 0.00 0.00 82 1014.0
20260507015039 9 0 0.0 1.6 0.00 0.00 0.00 82 1014.0
20260507014601 9 0 0.0 1.6 0.00 0.00 0.00 82 1013.9
20260507014039 9 298 0.0 1.6 0.00 0.00 0.00 81 1013.9
20260507013540 9 0 0.0 0.0 0.00 0.00 0.00 81 1013.9
20260507013055 9 0 0.0 0.0 0.00 0.00 0.00 81 1014.0
20260507012540 9 0 0.0 0.0 0.00 0.00 0.00 80 1014.0
20260507012039 9 0 0.0 1.6 0.00 0.00 0.00 80 1013.9
20260507011548 9 0 0.0 1.6 0.00 0.00 0.00 80 1013.9
20260507011041 9 0 0.0 1.6 0.00 0.00 0.00 80 1013.9
20260507010540 9 0 0.0 1.6 0.00 0.00 0.00 80 1013.8
20260507010056 9 0 0.0 1.6 0.00 0.00 0.00 80 1013.9
20260507005539 9 0 0.0 1.6 0.00 0.00 0.00 80 1013.9
20260507005045 9 0 0.0 1.6 0.00 0.00 0.00 81 1014.0
20260507004602 9 0 0.0 1.6 0.00 0.00 0.00 81 1013.9
20260507004041 9 0 0.0 1.6 0.00 0.00 0.00 81 1014.0
20260507003540 10 0 0.0 1.6 0.00 0.00 0.00 81 1013.9
20260507003052 9 0 0.0 1.6 0.00 0.00 0.00 81 1013.9
20260507002539 9 0 0.0 1.6 0.00 0.00 0.00 81 1013.9
20260507002040 9 0 0.0 1.6 0.00 0.00 0.00 80 1013.8
20260507001551 9 0 0.0 1.6 0.00 0.00 0.00 80 1013.7
20260507001040 9 291 0.0 1.6 0.00 0.00 0.00 80 1013.8
20260507000545 9 0 0.0 3.2 0.00 0.00 0.00 80 1013.8
20260507000052 9 0 0.0 3.2 0.00 0.00 0.00 81 1013.8
20260506235545 9 0 0.0 3.2 0.00 0.00 0.00 80 1013.8
20260506235039 9 0 0.0 3.2 0.00 0.00 0.00 79 1013.8
20260506234551 9 0 0.0 3.2 0.00 0.00 0.00 80 1013.8
20260506234041 9 0 0.0 3.2 0.00 0.00 0.00 80 1013.8
20260506233612 9 282 0.0 1.6 0.00 0.00 0.00 80 1013.8
20260506233101 9 0 0.0 1.6 0.00 0.00 0.00 79 1013.7
20260506232542 10 0 0.0 1.6 0.00 0.00 0.00 79 1013.7
20260506232040 9 0 0.0 1.6 0.00 0.00 0.00 79 1013.7
20260506231543 10 0 0.0 1.6 0.00 0.00 0.00 79 1013.7
20260506231040 10 309 0.0 1.6 0.00 0.00 0.00 79 1013.7
20260506230539 10 0 0.0 1.6 0.00 0.00 0.00 79 1013.6
20260506230052 10 0 0.0 1.6 0.00 0.00 0.00 79 1013.5
20260506225540 10 0 0.0 3.2 0.00 0.03 0.00 80 1013.5
20260506225042 10 0 0.0 3.2 0.00 0.03 0.00 80 1013.4
20260506224551 10 0 0.0 3.2 0.00 0.03 0.00 80 1013.4
20260506224039 10 0 0.0 3.2 0.00 0.03 0.00 78 1013.3
20260506223539 10 0 0.0 3.2 0.00 0.03 0.00 78 1013.3
20260506223049 10 325 0.0 3.2 0.00 0.03 0.00 78 1013.3
20260506222540 10 0 0.0 1.6 0.00 0.03 0.00 77 1013.2
20260506222037 10 0 0.0 3.2 0.00 0.03 0.00 78 1013.1
20260506221548 10 0 0.0 3.2 0.00 0.03 0.00 78 1013.2
20260506221038 10 0 0.0 3.2 0.00 0.03 0.00 77 1013.2
20260506220543 10 0 0.0 3.2 0.00 0.03 0.00 77 1013.1
20260506220051 10 0 0.0 3.2 0.00 0.03 0.00 76 1013.1
20260506215542 10 9 0.0 4.8 0.00 0.03 0.03 76 1013.1
20260506215041 10 26 0.0 4.8 0.00 0.03 0.03 75 1013.0
20260506214544 10 334 0.0 6.4 0.00 0.03 0.03 74 1013.0
20260506214041 10 0 0.0 6.4 0.00 0.03 0.03 75 1013.0
20260506213540 10 325 0.0 6.4 0.00 0.03 0.03 74 1013.0
20260506213109 10 51 0.0 6.4 0.00 0.03 0.03 74 1012.9
20260506212541 10 0 0.0 6.4 0.00 0.03 0.03 74 1012.8
20260506212039 10 41 0.0 6.4 0.00 0.03 0.03 75 1012.8
20260506211548 10 44 0.0 4.8 0.00 0.03 0.03 75 1012.8
20260506211041 10 34 0.0 3.2 0.00 0.03 0.03 75 1012.8
20260506210541 10 0 0.0 3.2 0.00 0.03 0.03 75 1012.8
20260506210049 10 309 0.0 3.2 0.00 0.03 0.03 75 1012.8
20260506205540 10 0 0.0 6.4 0.00 0.03 0.03 75 1012.7
20260506205041 10 0 1.6 8.0 0.00 0.03 0.03 74 1012.6
20260506204550 10 76 1.6 8.0 0.00 0.03 0.03 74 1012.6
20260506204040 10 51 1.6 4.8 0.00 0.03 0.03 75 1012.5
20260506203541 10 17 0.0 4.8 0.00 0.03 0.03 75 1012.5
20260506203058 10 0 0.0 4.8 0.00 0.03 0.03 75 1012.5
20260506202544 10 0 0.0 4.8 0.00 0.03 0.03 75 1012.5
20260506202042 10 51 0.0 3.2 0.00 0.03 0.03 75 1012.4
20260506201549 10 0 0.0 6.4 0.00 0.03 0.03 74 1012.4
20260506201044 10 0 0.0 6.4 0.00 0.03 0.03 74 1012.3
20260506200541 10 325 0.0 8.0 0.00 0.03 0.03 74 1012.3
20260506200051 10 319 1.6 9.7 0.00 0.03 0.03 73 1012.4
20260506195541 11 0 0.0 9.7 0.00 0.03 0.03 73 1012.3
20260506195045 11 39 1.6 11.3 0.00 0.03 0.03 73 1012.4
20260506194549 11 41 1.6 11.3 0.00 0.03 0.03 73 1012.3
20260506194041 11 9 1.6 9.7 0.00 0.03 0.03 72 1012.2
20260506193541 11 9 3.2 9.7 0.00 0.03 0.03 72 1012.3
20260506193043 11 9 3.2 9.7 0.00 0.03 0.03 72 1012.2
20260506192543 11 15 1.6 12.9 0.00 0.03 0.03 73 1012.2
20260506192041 11 0 1.6 12.9 0.00 0.03 0.03 74 1012.2
20260506191544 11 68 0.0 11.3 0.00 0.03 0.03 74 1012.1
20260506191043 11 338 1.6 9.7 0.00 0.03 0.03 74 1012.1
20260506190543 11 55 1.6 9.7 0.00 0.03 0.03 74 1012.0
20260506190053 11 332 1.6 12.9 0.00 0.03 0.03 74 1012.0
20260506185541 11 301 1.6 12.9 0.00 0.03 0.03 74 1011.8
20260506185042 11 309 1.6 11.3 0.00 0.03 0.03 73 1011.9
20260506184552 11 0 1.6 14.5 0.00 0.03 0.03 73 1011.9
20260506184042 11 46 4.8 14.5 0.00 0.03 0.03 72 1011.8
20260506183543 11 321 3.2 12.9 0.00 0.03 0.03 72 1011.8
20260506183058 11 338 1.6 12.9 0.00 0.03 0.03 72 1011.7
20260506182541 11 9 4.8 14.5 0.00 0.03 0.03 71 1011.7
20260506182041 11 347 4.8 17.7 0.00 0.03 0.03 71 1011.6
20260506181613 11 39 4.8 20.9 0.00 0.03 0.03 70 1011.5
20260506181041 11 34 4.8 20.9 0.00 0.03 0.03 70 1011.5
20260506180541 11 31 4.8 19.3 0.00 0.03 0.03 69 1011.4
20260506180050 12 348 6.4 19.3 0.00 0.03 0.03 69 1011.3
20260506175544 12 76 3.2 11.3 0.00 0.03 0.03 69 1011.2
20260506175046 12 131 3.2 16.1 0.00 0.03 0.03 69 1011.2
20260506174551 12 57 3.2 17.7 0.00 0.03 0.03 68 1011.0
20260506174043 12 15 4.8 17.7 0.00 0.03 0.03 68 1010.9
20260506173541 12 9 3.2 12.9 0.00 0.03 0.03 67 1010.8
20260506173059 12 34 3.2 9.7 0.00 0.03 0.03 67 1010.8
20260506172542 12 59 3.2 9.7 0.00 0.03 0.03 67 1010.7
20260506172047 12 26 1.6 16.1 0.00 0.03 0.03 67 1010.6
20260506171546 12 42 3.2 16.1 0.00 0.03 0.03 66 1010.6
20260506171041 12 265 4.8 16.1 0.00 0.03 0.03 64 1010.5
20260506170544 12 325 3.2 16.1 0.00 0.03 0.03 63 1010.5
20260506170052 13 265 4.8 16.1 0.00 0.03 0.03 62 1010.4
20260506165538 13 338 6.4 16.1 0.00 0.03 0.03 61 1010.3
20260506165041 13 38 4.8 14.5 0.00 0.03 0.03 61 1010.3
20260506164549 13 340 3.2 16.1 0.00 0.03 0.03 59 1010.2
20260506164040 14 38 4.8 16.1 0.00 0.03 0.03 61 1010.2
20260506163542 14 9 3.2 12.9 0.00 0.03 0.03 61 1010.2
20260506163047 14 32 3.2 14.5 0.00 0.03 0.03 61 1010.1
20260506162538 14 72 3.2 16.1 0.00 0.03 0.03 61 1010.1
20260506162038 14 144 3.2 16.1 0.00 0.03 0.03 64 1010.0
20260506161548 13 330 3.2 12.9 0.00 0.03 0.03 63 1010.0
20260506161040 13 36 3.2 14.5 0.00 0.03 0.03 65 1009.9
20260506160540 13 0 3.2 14.5 0.00 0.03 0.03 65 1010.0
20260506160054 14 295 4.8 14.5 0.00 0.03 0.03 66 1009.9
20260506155543 13 48 4.8 14.5 0.00 0.03 0.03 65 1009.9
20260506155042 14 275 3.2 11.3 0.00 0.03 0.03 65 1009.8
20260506154552 13 45 1.6 12.9 0.00 0.03 0.03 66 1009.9
20260506154041 14 9 3.2 12.9 0.00 0.03 0.03 65 1009.8
20260506153540 14 72 1.6 11.3 0.00 0.03 0.03 65 1009.8
20260506153105 14 334 1.6 14.5 0.00 0.03 0.03 65 1009.8
20260506152543 14 51 3.2 19.3 0.00 0.03 0.03 65 1009.7
20260506152039 14 43 6.4 19.3 0.00 0.03 0.03 63 1009.8
20260506151551 15 314 4.8 14.5 0.00 0.03 0.03 63 1009.7
20260506151042 15 74 3.2 14.5 0.00 0.03 0.03 63 1009.7
20260506150537 15 36 1.6 12.9 0.00 0.03 0.03 63 1009.6
20260506150057 15 279 1.6 9.7 0.00 0.03 0.03 63 1009.7
20260506145538 15 22 1.6 9.7 0.00 0.03 0.03 63 1009.6
20260506145040 15 9 1.6 11.3 0.00 0.03 0.03 63 1009.6
20260506144555 15 44 1.6 12.9 0.00 0.03 0.03 64 1009.6
20260506144041 15 321 3.2 12.9 0.00 0.03 0.03 63 1009.7
20260506143540 15 41 3.2 12.9 0.00 0.03 0.03 64 1009.6
20260506143044 15 51 1.6 12.9 0.00 0.03 0.03 62 1009.7
20260506142539 15 46 1.6 12.9 0.00 0.03 0.03 62 1009.7
20260506142042 15 126 1.6 12.9 0.00 0.03 0.03 64 1009.7
20260506141550 15 270 1.6 16.1 0.00 0.03 0.03 61 1009.6
20260506141042 15 68 3.2 16.1 0.00 0.03 0.03 61 1009.6
20260506140546 15 342 3.2 16.1 0.00 0.03 0.03 60 1009.6
20260506140050 15 309 1.6 12.9 0.00 0.03 0.03 61 1009.7
20260506135540 15 31 3.2 12.9 0.00 0.03 0.03 61 1009.6
20260506135042 15 73 1.6 16.1 0.00 0.03 0.03 61 1009.6
20260506134551 15 334 3.2 16.1 0.00 0.03 0.03 63 1009.5
20260506134046 15 34 4.8 14.5 0.00 0.03 0.03 60 1009.5
20260506133540 15 305 3.2 12.9 0.00 0.03 0.03 61 1009.6